星链-2566 (STARLINK-2566 )

导读

STARLINK-2566是美国SpaceX公司于2021年4月29日发射的星链低轨通信卫星,属于星链全球宽带互联网星座的组成部分。该卫星采用平板设计,搭载Ku/Ka波段通信载荷,以氪工质霍尔推进实现轨道维持与离轨,具备自主避撞能力。卫星单星约227千克,运行于低轨,旨在为全球提供高速宽带互联网服务,寿命末期会再入大气层焚毁,降低空间碎片风险,是星链星座规模化部署的重要单元。

基本信息
目录编号:
48287
目录名称:
STARLINK-2566
国际标识:
2021-036M
轨道中心:
EARTH
卫星名称:
星链-2566
卫星全名:
星链-2566 (STARLINK-2566 )
卫星状态:
在轨 (已飞行1876 天)
发射日期:
2021-04-29 UTC
国别 :
美国 (US)
星等 :
--
轨道信息
数据来源 国际轨道数据
星历时间: 2026-06-18T01:21:13+0800
22小时前
查看轨道信息
半长轴: 6848.865km
偏心率: 0.000108
轨道倾角: 53.161°
近地点辐角 74.008°
升交点赤经 332.448°
平近点角 286.104°
近地点: 469.988km
远地点: 471.468km
周期: 94.013分钟
每日圈数: 15.317042
详细信息
固有亮度:
5
最大亮度:
2.5
卫星平台:
Starlink V1.0
覆盖范围:
全球
运营商:
太空探索技术公司
运营商所在国:
美国
制造商(研发单位):
太空探索技术公司
制造商所在国:
美国
使用方式:
暂无
卫星简介
星链(Starlink)计划是由太空探索技术公司(SpaceX)提出的一个巨型低轨卫星互联网星座项目,计划在2019年至2024年间在太空搭建由约1.2万颗卫星组成的“星链”网络,其中1584颗将部署在地球上空550千米处的近地轨道,并从2020年开始工作。该卫星仍在工作。
2D轨道图
3D轨道图
轨道高度分析图
轨道倾角分析图
轨道综合分析图
查看轨道综合分析图